| time (UTC) | temp F | wind direction | speed knots | gust knots | rain 1hr in | rain 24hr in | rain mn in | humidity % | barometer mb |
| 20260504191955 | 79 | 236 | 6.1 | 7.0 | 0.00 | 0.00 | 0.00 | 39 | 1001.4 |
| 20260504191452 | 80 | 248 | 8.7 | 9.6 | 0.00 | 0.00 | 0.00 | 38 | 1001.5 |
| 20260504190947 | 79 | 212 | 3.5 | 3.5 | 0.00 | 0.00 | 0.00 | 39 | 1001.5 |
| 20260504190443 | 79 | 248 | 3.5 | 5.2 | 0.00 | 0.00 | 0.00 | 40 | 1001.4 |
| 20260504185940 | 79 | 272 | 3.5 | 3.5 | 0.00 | 0.00 | 0.00 | 42 | 1001.6 |
| 20260504185437 | 79 | 265 | 4.3 | 6.1 | 0.00 | 0.00 | 0.00 | 42 | 1001.8 |
| 20260504184933 | 78 | 243 | 5.2 | 7.0 | 0.00 | 0.00 | 0.00 | 43 | 1001.6 |
| 20260504184429 | 79 | 226 | 4.3 | 5.2 | 0.00 | 0.00 | 0.00 | 41 | 1001.9 |
| 20260504183925 | 79 | 214 | 5.2 | 6.1 | 0.00 | 0.00 | 0.00 | 43 | 1001.5 |
| 20260504183423 | 78 | 230 | 2.6 | 3.5 | 0.00 | 0.00 | 0.00 | 43 | 1001.8 |
| 20260504182921 | 78 | 205 | 5.2 | 7.0 | 0.00 | 0.00 | 0.00 | 45 | 1001.8 |
| 20260504182417 | 77 | 268 | 4.3 | 6.1 | 0.00 | 0.00 | 0.00 | 44 | 1001.8 |
| 20260504181914 | 78 | 188 | 6.1 | 8.7 | 0.00 | 0.00 | 0.00 | 44 | 1001.8 |
| 20260504181412 | 77 | 260 | 5.2 | 7.0 | 0.00 | 0.00 | 0.00 | 45 | 1001.7 |
| 20260504180910 | 77 | 255 | 7.0 | 9.6 | 0.00 | 0.00 | 0.00 | 42 | 1001.8 |
| 20260504180409 | 77 | 202 | 10.4 | 12.2 | 0.00 | 0.00 | 0.00 | 43 | 1001.8 |
| 20260504175906 | 77 | 228 | 4.3 | 5.2 | 0.00 | 0.00 | 0.00 | 48 | 1002.0 |
| 20260504175402 | 77 | 233 | 4.3 | 6.1 | 0.00 | 0.00 | 0.00 | 43 | 1002.0 |
| 20260504174901 | 77 | 222 | 4.3 | 5.2 | 0.00 | 0.00 | 0.00 | 43 | 1001.7 |
| 20260504174358 | 76 | 235 | 5.2 | 6.1 | 0.00 | 0.00 | 0.00 | 45 | 1002.2 |
| 20260504173855 | 77 | 186 | 7.0 | 7.8 | 0.00 | 0.00 | 0.00 | 42 | 1002.2 |
| 20260504173351 | 76 | 291 | 7.8 | 9.6 | 0.00 | 0.00 | 0.00 | 43 | 1002.0 |
| 20260504172849 | 76 | 250 | 10.4 | 13.0 | 0.00 | 0.00 | 0.00 | 44 | 1002.2 |
| 20260504172345 | 76 | 250 | 6.1 | 8.7 | 0.00 | 0.00 | 0.00 | 44 | 1002.2 |
| 20260504171841 | 76 | 239 | 7.0 | 7.8 | 0.00 | 0.00 | 0.00 | 44 | 1002.0 |
| 20260504171338 | 76 | 283 | 3.5 | 3.5 | 0.00 | 0.00 | 0.00 | 46 | 1002.5 |
| 20260504170836 | 76 | 245 | 5.2 | 7.0 | 0.00 | 0.00 | 0.00 | 45 | 1002.6 |
| 20260504170332 | 75 | 236 | 6.1 | 8.7 | 0.00 | 0.00 | 0.00 | 43 | 1002.5 |
| 20260504160250 | 73 | 196 | 5.2 | 6.1 | 0.00 | 0.00 | 0.00 | 48 | 1002.9 |
| 20260504150716 | 71 | 187 | 4.3 | 5.2 | 0.00 | 0.00 | 0.00 | 50 | 1002.7 |
| 20260504150213 | 71 | 242 | 7.8 | 7.8 | 0.00 | 0.00 | 0.00 | 48 | 1002.8 |
| 20260504141142 | 69 | 218 | 7.0 | 8.7 | 0.00 | 0.00 | 0.00 | 51 | 1003.1 |
| 20260504140639 | 69 | 270 | 7.0 | 8.7 | 0.00 | 0.00 | 0.00 | 51 | 1003.1 |
| 20260504140134 | 69 | 238 | 4.3 | 5.2 | 0.00 | 0.00 | 0.00 | 52 | 1003.2 |
| 20260504130602 | 65 | 205 | 7.0 | 8.7 | 0.00 | 0.00 | 0.00 | 57 | 1003.3 |
| 20260504110450 | 61 | 163 | 3.5 | 5.2 | 0.00 | 0.00 | 0.00 | 65 | 1003.5 |
| 20260504100412 | 60 | 233 | 7.0 | 7.8 | 0.00 | 0.00 | 0.00 | 64 | 1004.4 |
| 20260504081806 | 58 | 147 | 0.9 | 1.7 | 0.00 | 0.00 | 0.00 | 74 | 1005.5 |
| 20260504081302 | 58 | 144 | 0.9 | 0.9 | 0.00 | 0.00 | 0.00 | 72 | 1005.9 |
| 20260504080758 | 58 | 123 | 0.9 | 0.9 | 0.00 | 0.00 | 0.00 | 73 | 1005.8 |
| 20260504080255 | 58 | 135 | 0.0 | 0.9 | 0.00 | 0.00 | 0.00 | 75 | 1005.7 |
| 20260504070223 | 59 | 154 | 0.0 | 0.0 | 0.00 | 0.00 | 0.00 | 65 | 1006.2 |
| 20260504060143 | 63 | 203 | 1.7 | 1.7 | 0.00 | 0.00 | 0.00 | 56 | 1007.3 |
| 20260504050611 | 59 | 145 | 0.0 | 0.0 | 0.00 | 0.00 | 0.00 | 63 | 1007.5 |
| 20260504050108 | 59 | 157 | 0.9 | 0.9 | 0.00 | 0.00 | 0.00 | 64 | 1007.7 |
| 20260504045605 | 60 | 158 | 0.0 | 0.0 | 0.00 | 0.00 | 0.00 | 63 | 1007.8 |
| 20260504045100 | 61 | 158 | 0.0 | 0.0 | 0.00 | 0.00 | 0.00 | 57 | 1007.5 |
| 20260504044558 | 61 | 158 | 0.0 | 0.0 | 0.00 | 0.00 | 0.00 | 56 | 1007.5 |
| 20260504044054 | 62 | 158 | 0.0 | 0.0 | 0.00 | 0.00 | 0.00 | 55 | 1007.3 |
| 20260504043552 | 62 | 157 | 0.0 | 0.0 | 0.00 | 0.00 | 0.00 | 55 | 1007.4 |
| 20260504043049 | 62 | 160 | 0.0 | 0.9 | 0.00 | 0.00 | 0.00 | 54 | 1007.6 |
| 20260504042546 | 62 | 160 | 0.0 | 0.0 | 0.00 | 0.00 | 0.00 | 54 | 1007.7 |
| 20260504042043 | 62 | 160 | 0.0 | 0.0 | 0.00 | 0.00 | 0.00 | 54 | 1007.6 |
| 20260504041539 | 61 | 164 | 1.7 | 1.7 | 0.00 | 0.00 | 0.00 | 54 | 1007.5 |
| 20260504041035 | 61 | 141 | 0.0 | 0.0 | 0.00 | 0.00 | 0.00 | 57 | 1008.0 |
| 20260504040533 | 60 | 141 | 0.0 | 0.9 | 0.00 | 0.00 | 0.00 | 56 | 1008.0 |
| 20260504040029 | 60 | 140 | 0.0 | 0.0 | 0.00 | 0.00 | 0.00 | 57 | 1007.9 |
| 20260504035526 | 60 | 140 | 0.0 | 0.0 | 0.00 | 0.00 | 0.00 | 57 | 1007.9 |
| 20260504035023 | 60 | 140 | 0.0 | 0.0 | 0.00 | 0.00 | 0.00 | 59 | 1008.0 |
| 20260504034521 | 61 | 140 | 0.0 | 0.0 | 0.00 | 0.00 | 0.00 | 56 | 1007.9 |
| 20260504034017 | 61 | 140 | 0.0 | 0.0 | 0.00 | 0.00 | 0.00 | 57 | 1008.0 |
| 20260504033515 | 61 | 140 | 0.0 | 0.0 | 0.00 | 0.00 | 0.00 | 56 | 1008.0 |
| 20260504033012 | 60 | 140 | 0.0 | 0.0 | 0.00 | 0.00 | 0.00 | 58 | 1008.0 |
| 20260504032509 | 61 | 140 | 0.0 | 0.0 | 0.00 | 0.00 | 0.00 | 58 | 1008.0 |
| 20260504032006 | 61 | 139 | 0.0 | 0.0 | 0.00 | 0.00 | 0.00 | 56 | 1008.1 |
| 20260504031502 | 63 | 150 | 0.0 | 0.9 | 0.00 | 0.00 | 0.00 | 56 | 1008.1 |
| 20260504030959 | 63 | 151 | 0.0 | 0.9 | 0.00 | 0.00 | 0.00 | 52 | 1008.1 |
| 20260504030456 | 63 | 150 | 0.9 | 0.9 | 0.00 | 0.00 | 0.00 | 56 | 1008.1 |
| 20260504025952 | 64 | 150 | 0.0 | 0.0 | 0.00 | 0.00 | 0.00 | 53 | 1008.0 |
| 20260504025449 | 63 | 150 | 0.0 | 0.0 | 0.00 | 0.00 | 0.00 | 51 | 1008.0 |
| 20260504024946 | 62 | 150 | 0.9 | 0.9 | 0.00 | 0.00 | 0.00 | 56 | 1008.0 |
| 20260504024443 | 62 | 150 | 0.0 | 0.0 | 0.00 | 0.00 | 0.00 | 57 | 1008.1 |
| 20260504023940 | 63 | 150 | 0.0 | 0.0 | 0.00 | 0.00 | 0.00 | 54 | 1007.9 |
| 20260504023437 | 64 | 150 | 0.0 | 0.0 | 0.00 | 0.00 | 0.00 | 52 | 1008.0 |
| 20260504022932 | 64 | 150 | 0.0 | 0.0 | 0.00 | 0.00 | 0.00 | 52 | 1008.0 |
| 20260504022429 | 62 | 150 | 0.0 | 0.9 | 0.00 | 0.00 | 0.00 | 53 | 1008.0 |
| 20260504021926 | 63 | 150 | 0.0 | 0.0 | 0.00 | 0.00 | 0.00 | 57 | 1007.6 |
| 20260504021423 | 63 | 150 | 0.0 | 0.0 | 0.00 | 0.00 | 0.00 | 55 | 1007.7 |
| 20260504020920 | 62 | 150 | 0.0 | 0.0 | 0.00 | 0.00 | 0.00 | 57 | 1007.8 |
| 20260504020417 | 61 | 150 | 0.0 | 0.0 | 0.00 | 0.00 | 0.00 | 54 | 1007.7 |
| 20260504015913 | 62 | 150 | 0.0 | 0.0 | 0.00 | 0.00 | 0.00 | 54 | 1007.7 |
| 20260504015409 | 62 | 150 | 0.0 | 0.0 | 0.00 | 0.00 | 0.00 | 52 | 1007.9 |
| 20260504014905 | 63 | 150 | 0.0 | 0.0 | 0.00 | 0.00 | 0.00 | 51 | 1007.7 |
| 20260504014401 | 64 | 150 | 0.0 | 0.0 | 0.00 | 0.00 | 0.00 | 49 | 1007.7 |
| 20260504013858 | 65 | 150 | 0.0 | 0.0 | 0.00 | 0.00 | 0.00 | 48 | 1007.8 |
| 20260504013357 | 65 | 150 | 0.0 | 0.0 | 0.00 | 0.00 | 0.00 | 47 | 1007.9 |
| 20260504012853 | 66 | 149 | 0.0 | 0.0 | 0.00 | 0.00 | 0.00 | 47 | 1007.8 |
| 20260504012351 | 66 | 149 | 0.0 | 0.9 | 0.00 | 0.00 | 0.00 | 47 | 1007.7 |
| 20260504011848 | 66 | 149 | 0.0 | 0.0 | 0.00 | 0.00 | 0.00 | 47 | 1007.7 |
| 20260504011344 | 67 | 149 | 0.0 | 0.0 | 0.00 | 0.00 | 0.00 | 48 | 1007.8 |
| 20260504010841 | 68 | 149 | 0.0 | 0.0 | 0.00 | 0.00 | 0.00 | 44 | 1007.7 |
| 20260504010336 | 69 | 149 | 0.0 | 0.0 | 0.00 | 0.00 | 0.00 | 43 | 1007.5 |
| 20260504005833 | 69 | 149 | 0.0 | 0.0 | 0.00 | 0.00 | 0.00 | 43 | 1007.7 |
| 20260504005330 | 69 | 34 | 0.0 | 0.0 | 0.00 | 0.00 | 0.00 | 42 | 1007.6 |
| 20260504004827 | 70 | 34 | 0.0 | 0.0 | 0.00 | 0.00 | 0.00 | 43 | 1007.8 |
| 20260504004325 | 71 | 32 | 0.0 | 0.0 | 0.00 | 0.00 | 0.00 | 43 | 1007.9 |
| 20260504003821 | 71 | 32 | 0.0 | 0.0 | 0.00 | 0.00 | 0.00 | 42 | 1007.9 |
| 20260504003318 | 71 | 32 | 0.0 | 0.0 | 0.00 | 0.00 | 0.00 | 41 | 1007.9 |
| 20260504002815 | 72 | 114 | 0.0 | 0.0 | 0.00 | 0.00 | 0.00 | 40 | 1008.2 |
| 20260504002312 | 72 | 114 | 0.0 | 0.0 | 0.00 | 0.00 | 0.00 | 42 | 1007.9 |
| 20260504001810 | 73 | 129 | 0.0 | 0.0 | 0.00 | 0.00 | 0.00 | 40 | 1008.0 |
| 20260504001306 | 73 | 165 | 0.0 | 0.0 | 0.00 | 0.00 | 0.00 | 40 | 1008.3 |
| 20260504000803 | 73 | 36 | 0.0 | 0.0 | 0.00 | 0.00 | 0.00 | 41 | 1008.1 |
| 20260504000300 | 74 | 353 | 0.0 | 0.9 | 0.00 | 0.00 | 0.00 | 40 | 1008.1 |
| 20260503235758 | 74 | 101 | 0.0 | 0.9 | 0.00 | 0.00 | 0.00 | 40 | 1008.0 |
| 20260503235255 | 76 | 56 | 0.0 | 0.9 | 0.00 | 0.00 | 0.00 | 38 | 1008.1 |
| 20260503234753 | 77 | 257 | 0.0 | 0.0 | 0.00 | 0.00 | 0.00 | 38 | 1008.0 |
| 20260503234251 | 77 | 314 | 2.6 | 2.6 | 0.00 | 0.00 | 0.00 | 34 | 1008.1 |
| 20260503233748 | 77 | 261 | 0.9 | 0.9 | 0.00 | 0.00 | 0.00 | 35 | 1008.3 |
| 20260503233243 | 77 | 256 | 0.9 | 0.9 | 0.00 | 0.00 | 0.00 | 35 | 1008.1 |
| 20260503232741 | 77 | 265 | 2.6 | 3.5 | 0.00 | 0.00 | 0.00 | 35 | 1007.9 |
| 20260503232238 | 78 | 301 | 3.5 | 3.5 | 0.00 | 0.00 | 0.00 | 34 | 1008.3 |
| 20260503231736 | 78 | 275 | 2.6 | 2.6 | 0.00 | 0.00 | 0.00 | 34 | 1008.4 |
| 20260503231232 | 78 | 262 | 1.7 | 1.7 | 0.00 | 0.00 | 0.00 | 34 | 1008.4 |
| 20260503230728 | 79 | 261 | 3.5 | 5.2 | 0.00 | 0.00 | 0.00 | 33 | 1008.3 |
| 20260503230226 | 78 | 233 | 2.6 | 2.6 | 0.00 | 0.00 | 0.00 | 35 | 1008.5 |
| 20260503225723 | 78 | 287 | 2.6 | 5.2 | 0.00 | 0.00 | 0.00 | 34 | 1008.5 |
| 20260503225223 | 78 | 278 | 5.2 | 6.1 | 0.00 | 0.00 | 0.00 | 33 | 1008.5 |
| 20260503224720 | 78 | 266 | 5.2 | 6.1 | 0.00 | 0.00 | 0.00 | 33 | 1008.5 |
| 20260503224218 | 78 | 245 | 3.5 | 5.2 | 0.00 | 0.00 | 0.00 | 35 | 1008.5 |
| 20260503223715 | 79 | 261 | 5.2 | 6.1 | 0.00 | 0.00 | 0.00 | 33 | 1008.1 |
| 20260503223213 | 78 | 285 | 3.5 | 3.5 | 0.00 | 0.00 | 0.00 | 34 | 1008.2 |
| 20260503222709 | 78 | 263 | 3.5 | 3.5 | 0.00 | 0.00 | 0.00 | 34 | 1008.3 |
| 20260503222207 | 78 | 239 | 4.3 | 5.2 | 0.00 | 0.00 | 0.00 | 34 | 1008.3 |
| 20260503221706 | 78 | 241 | 1.7 | 2.6 | 0.00 | 0.00 | 0.00 | 36 | 1008.5 |
| 20260503221203 | 78 | 249 | 1.7 | 2.6 | 0.00 | 0.00 | 0.00 | 33 | 1008.5 |
| 20260503220659 | 79 | 255 | 5.2 | 7.0 | 0.00 | 0.00 | 0.00 | 34 | 1008.5 |
| 20260503220156 | 78 | 313 | 4.3 | 6.1 | 0.00 | 0.00 | 0.00 | 33 | 1008.6 |
| 20260503215653 | 78 | 301 | 4.3 | 7.0 | 0.00 | 0.00 | 0.00 | 32 | 1008.6 |
| 20260503215149 | 79 | 252 | 4.3 | 6.1 | 0.00 | 0.00 | 0.00 | 35 | 1008.6 |
| 20260503214649 | 78 | 276 | 2.6 | 2.6 | 0.00 | 0.00 | 0.00 | 33 | 1008.7 |
| 20260503214144 | 78 | 292 | 5.2 | 6.1 | 0.00 | 0.00 | 0.00 | 35 | 1008.5 |
| 20260503213643 | 77 | 286 | 3.5 | 5.2 | 0.00 | 0.00 | 0.00 | 32 | 1008.6 |
| 20260503213140 | 78 | 270 | 3.5 | 6.1 | 0.00 | 0.00 | 0.00 | 34 | 1009.0 |
| 20260503212637 | 78 | 264 | 5.2 | 7.0 | 0.00 | 0.00 | 0.00 | 33 | 1009.1 |
| 20260503212134 | 78 | 275 | 5.2 | 6.1 | 0.00 | 0.00 | 0.00 | 33 | 1008.9 |
| 20260503211633 | 77 | 258 | 5.2 | 7.8 | 0.00 | 0.00 | 0.00 | 34 | 1008.9 |
| 20260503211133 | 77 | 267 | 4.3 | 6.1 | 0.00 | 0.00 | 0.00 | 38 | 1008.9 |
| 20260503210629 | 77 | 275 | 5.2 | 6.1 | 0.00 | 0.00 | 0.00 | 35 | 1009.1 |
| 20260503210126 | 77 | 242 | 9.6 | 11.3 | 0.00 | 0.00 | 0.00 | 34 | 1009.2 |
| 20260503205622 | 77 | 270 | 3.5 | 3.5 | 0.00 | 0.00 | 0.00 | 37 | 1009.4 |
| 20260503205118 | 77 | 269 | 5.2 | 7.8 | 0.00 | 0.00 | 0.00 | 38 | 1009.4 |
| 20260503204615 | 77 | 297 | 6.1 | 7.0 | 0.00 | 0.00 | 0.00 | 35 | 1009.4 |
| 20260503204113 | 78 | 279 | 7.8 | 8.7 | 0.00 | 0.00 | 0.00 | 35 | 1009.4 |
| 20260503203610 | 77 | 306 | 1.7 | 2.6 | 0.00 | 0.00 | 0.00 | 39 | 1009.4 |
| 20260503203107 | 76 | 323 | 8.7 | 9.6 | 0.00 | 0.00 | 0.00 | 35 | 1009.5 |
| 20260503202604 | 76 | 276 | 3.5 | 3.5 | 0.00 | 0.00 | 0.00 | 42 | 1009.5 |
| 20260503202102 | 77 | 211 | 7.0 | 8.7 | 0.00 | 0.00 | 0.00 | 35 | 1009.6 |
| 20260503201600 | 77 | 273 | 4.3 | 5.2 | 0.00 | 0.00 | 0.00 | 37 | 1009.6 |
| 20260503201057 | 77 | 268 | 4.3 | 6.1 | 0.00 | 0.00 | 0.00 | 36 | 1009.7 |
| 20260503200553 | 77 | 285 | 4.3 | 7.0 | 0.00 | 0.00 | 0.00 | 35 | 1009.6 |
| 20260503200050 | 77 | 295 | 5.2 | 7.0 | 0.00 | 0.00 | 0.00 | 34 | 1009.6 |
| 20260503195547 | 76 | 234 | 4.3 | 7.0 | 0.00 | 0.00 | 0.00 | 38 | 1009.8 |
| 20260503195044 | 76 | 278 | 3.5 | 6.1 | 0.00 | 0.00 | 0.00 | 36 | 1010.0 |
| 20260503194541 | 76 | 308 | 7.8 | 9.6 | 0.00 | 0.00 | 0.00 | 36 | 1009.9 |
| 20260503194041 | 75 | 265 | 2.6 | 3.5 | 0.00 | 0.00 | 0.00 | 41 | 1010.1 |
| 20260503193538 | 75 | 302 | 6.1 | 7.0 | 0.00 | 0.00 | 0.00 | 38 | 1009.9 |
| 20260503193033 | 75 | 266 | 9.6 | 11.3 | 0.00 | 0.00 | 0.00 | 38 | 1010.0 |
| 20260503192530 | 75 | 259 | 5.2 | 7.8 | 0.00 | 0.00 | 0.00 | 40 | 1010.1 |